Location: Sangrey
(48.2845°N, 109.8206°W)
Time: 21:13:16
(UTC+00:00)

BlueWalker 3 - Pass Details

Date: 01 December 2022
Orbit: 499 x 517 km, 53.2° (Epoch: 04 February)

Event Time Altitude Azimuth Distance (km) Brightness Sun altitude
Rises 02:10:30 0° 286° (WNW) 2,626 6.7 -26.3°
Reaches altitude 10° 02:12:49 10° 294° (WNW) 1,735 5.4 -26.7°
Enters shadow 02:15:00 27° 316° (NW) 1,002 3.7 -27.0°
